Regional Weather Roundup
Issued by NWS Burlington, VT

Home | Current Version | Previous Version | Text Only | Print | Product List | Glossary On
Versions: 1 2 3 4 5 6 7 8 9 10 11 12 13 14 15 16 17 18 19 20 21 22 23 24 25 26 27 28 29 30 31 32 33 34 35 36 37 38 39 40 41 42 43 44 45 46 47 48 49 50
000
ASUS41 KBTV 190530
RWRBTV
VERMONT REGIONAL WEATHER ROUNDUP
NATIONAL WEATHER SERVICE BURLINGTON VT
100 AM EDT FRI SEP 19 2014

NOTE: "FAIR" INDICATES FEW OR NO CLOUDS BELOW 12,000 FEET WITH NO
SIGNIFICANT WEATHER AND/OR OBSTRUCTIONS TO VISIBILITY.

* THESE REPORTS ARE NOT UNDER NWS QUALITY CONTROL AND/OR DO NOT
  REPORT WEATHER SUCH AS PRECIPITATION AND FOG.

VTZ001>019-190600-
_____VERMONT_____


CITY           SKY/WX    TMP DP  RH WIND       PRES   REMARKS
BURLINGTON     MOCLDY    42  34  73 CALM      30.25R
MONTPELIER     MOCLDY    35  33  92 CALM      30.25R
MORRISVILLE    MOCLDY    38  34  85 CALM      30.25R
ST. JOHNSBURY*   N/A     35  33  92 MISG      30.22R
MIDDLEBURY*    FAIR      36  36 100 CALM      30.24R
RUTLAND*       CLEAR     36  34  93 SE5       30.22R
SPRINGFIELD    CLEAR     39  37  92 CALM      30.21R
HIGHGATE*      CLOUDY    40  33  74 N5        30.27R
NEWPORT*       FAIR      36  31  81 CALM      30.24R
BENNINGTON     CLEAR     40  38  93 S3        30.19R
SUTTON*          N/A     32 N/A N/A MISG        N/A
MT. MANSFIELD*   N/A     30 N/A N/A N6          N/A

_____LAKE CHAMPLAIN_____


CITY           SKY/WX    TMP DP  RH WIND       PRES   REMARKS
BURTON ISLAND*   N/A     43  34  70 N1          N/A
COLCHESTER RF*   N/A     46  32  57 NE13        N/A
DIAMOND ISL*     N/A     46  32  57 N16         N/A

$$

NYZ007-026>031-035-052-083-190600-
_____NORTHERN NEW YORK_____


CITY           SKY/WX    TMP DP  RH WIND       PRES   REMARKS
PLATTSBURGH    CLEAR     39  32  76 NW7       30.26R
SARANAC LAKE   CLEAR     26  25  96 CALM      30.22R
MASSENA        CLEAR     33  31  92 CALM      30.30R
OGDENSBURG*    CLEAR     34  30  86 CALM      30.30R
POTSDAM*       CLEAR     34  34 100 CALM      30.29R
WATERTOWN      CLEAR     37  30  75 E5        30.28R
FT DRUM        CLEAR     36  32  87 E7        30.26R
ALBANY         MOCLDY    49  39  68 N8        30.22R
GLENS FALLS    CLEAR     43  37  79 E6        30.23R

$$
NHZ002-005-011-190600-
_____NEW HAMPSHIRE_____


CITY           SKY/WX    TMP DP  RH WIND       PRES   REMARKS
LEBANON        CLEAR     38  33  82 CALM      30.21R
KEENE          CLEAR     41  34  75 CALM      30.21R
MT WASHINGTON  FOG       19  19 100 NW45        N/A  VSB 1/16WCI  -3
PLYMOUTH       FAIR      38  38 100 NW5       30.20R
WHITEFIELD     CLEAR     31  28  89 CALM      30.21R

$$

_____REGIONAL QUEBEC LOCATIONS_____


CITY           SKY/WX    TMP DP  RH WIND       PRES   REMARKS
MONTREAL       MOCLDY    41  28  60 NW5       30.28R
QUEBEC CITY    CLEAR     36  28  75 NW3       30.22R
SHERBROOKE     CLEAR     32  30  93 VRB2      30.23R

_____REGIONAL ONTARIO LOCATIONS_____


CITY           SKY/WX    TMP DP  RH WIND       PRES   REMARKS
OTTAWA         CLEAR     37  30  75 N6        30.30R

______KEY______
VSB  - VISIBILITY IN MILES
WCI  - WIND CHILL INDEX
HX   - HEAT INDEX
$$



USA.gov is the U.S. government's official web portal to all federal, state and local government web resources and services.